User: anonymous   Login
Location: Bonny Doon Airfield
(37.0704°N, 122.1252°W)
Time: 06:31:45
(UTC-07:00)
Language:

Envisat - Orbit

View from above orbital plane
View from above orbital plane
View from above satellite
View from above satellite

Ground track
Ground track

The orbit data is extracted from the following two-line orbital elements,

1 27386U 02009A   18171.08856182 -.00000012  00000-0  96211-5 0  9991
2 27386  98.1837 205.0129 0001237  94.3623 322.4799 14.37924236853949
Epoch (UTC): 20 June 2018 02:07:31
Eccentricity: 0.0001237
inclination: 98.1837°
perigee height: 764 km
apogee height: 766 km
right ascension of ascending node: 205.0129°
argument of perigee: 94.3623°
revolutions per day: 14.37924236
mean anomaly at epoch: 322.4799°
orbit number at epoch: 85394

The dashed part of the orbit path shows where the satellite is in the earth's shadow,  

DLR